Time,TemperatureF,DewpointF,PressureIn,WindDirection,WindDirectionDegrees,WindSpeedMPH,WindSpeedGustMPH,Humidity,HourlyPrecipIn,Conditions,Clouds,dailyrainin,SoftwareType,DateUTC
2013-09-02 00:06:00,85.6,71.6,29.93,NW,315,0.0,-999.0,63,0.00,,,0.00,open2300 v1.10,2013-09-02 05:06:00,
2013-09-02 00:12:00,85.6,72.1,29.93,NW,315,4.0,-999.0,64,0.00,,,0.00,open2300 v1.10,2013-09-02 05:12:00,
2013-09-02 00:17:00,85.6,71.6,29.94,NW,315,2.9,-999.0,63,0.00,,,0.00,open2300 v1.10,2013-09-02 05:17:00,
2013-09-02 00:22:00,85.6,71.6,29.93,NW,315,0.0,-999.0,63,0.00,,,0.00,open2300 v1.10,2013-09-02 05:22:00,
2013-09-02 00:27:00,85.6,71.6,29.93,NW,315,0.0,-999.0,63,0.00,,,0.00,open2300 v1.10,2013-09-02 05:27:00,
2013-09-02 00:32:00,85.6,71.6,29.94,North,0,0.4,-999.0,63,0.00,,,0.00,open2300 v1.10,2013-09-02 05:32:00,
2013-09-02 00:37:00,85.6,71.6,29.93,NW,315,0.7,-999.0,63,0.00,,,0.00,open2300 v1.10,2013-09-02 05:37:00,
2013-09-02 00:47:00,85.3,71.7,29.93,NW,315,1.3,-999.0,64,0.00,,,0.00,open2300 v1.10,2013-09-02 05:47:00,
2013-09-02 00:58:00,85.3,71.7,29.93,NW,315,5.8,-999.0,64,0.00,,,0.00,open2300 v1.10,2013-09-02 05:58:00,
2013-09-02 01:07:00,85.3,71.7,29.93,WNW,292,4.7,-999.0,64,0.00,,,0.00,open2300 v1.10,2013-09-02 06:07:00,
2013-09-02 01:12:00,85.1,71.6,29.93,NNW,337,5.6,-999.0,64,0.00,,,0.00,open2300 v1.10,2013-09-02 06:12:00,
2013-09-02 01:17:00,85.1,71.6,29.93,NW,315,7.4,-999.0,64,0.00,,,0.00,open2300 v1.10,2013-09-02 06:17:00,
2013-09-02 01:22:00,84.9,71.4,29.93,NW,315,5.4,-999.0,64,0.00,,,0.00,open2300 v1.10,2013-09-02 06:22:00,
2013-09-02 01:27:00,84.9,71.8,29.93,NNW,337,8.1,-999.0,65,0.00,,,0.00,open2300 v1.10,2013-09-02 06:27:00,
2013-09-02 01:37:00,84.7,71.7,29.93,NW,315,0.0,-999.0,65,0.00,,,0.00,open2300 v1.10,2013-09-02 06:37:00,
2013-09-02 01:47:00,84.7,71.7,29.93,NNW,337,4.9,-999.0,65,0.00,,,0.00,open2300 v1.10,2013-09-02 06:47:00,
2013-09-02 01:57:00,84.6,71.5,29.93,NW,315,0.0,-999.0,65,0.00,,,0.00,open2300 v1.10,2013-09-02 06:57:00,
2013-09-02 02:07:00,84.4,71.3,29.93,NNW,337,0.0,-999.0,65,0.00,,,0.00,open2300 v1.10,2013-09-02 07:07:00,
2013-09-02 02:12:00,84.2,71.2,29.92,NW,315,0.0,-999.0,65,0.00,,,0.00,open2300 v1.10,2013-09-02 07:12:00,
2013-09-02 02:17:00,84.2,71.6,29.92,NW,315,0.0,-999.0,66,0.00,,,0.00,open2300 v1.10,2013-09-02 07:17:00,
2013-09-02 02:22:00,84.2,71.6,29.93,NW,315,1.6,-999.0,66,0.00,,,0.00,open2300 v1.10,2013-09-02 07:22:00,
2013-09-02 02:27:00,84.2,71.6,29.92,NW,315,0.0,-999.0,66,0.00,,,0.00,open2300 v1.10,2013-09-02 07:27:00,
2013-09-02 02:32:00,84.0,71.4,29.93,NW,315,3.1,-999.0,66,0.00,,,0.00,open2300 v1.10,2013-09-02 07:32:00,
2013-09-02 02:37:00,84.0,71.4,29.93,West,270,0.0,-999.0,66,0.00,,,0.00,open2300 v1.10,2013-09-02 07:37:00,
2013-09-02 02:42:00,84.0,71.4,29.93,SW,225,0.7,-999.0,66,0.00,,,0.00,open2300 v1.10,2013-09-02 07:42:00,
2013-09-02 02:47:00,84.0,71.4,29.93,NNW,337,2.0,-999.0,66,0.00,,,0.00,open2300 v1.10,2013-09-02 07:47:00,
2013-09-02 02:52:00,84.0,71.4,29.93,NW,315,0.0,-999.0,66,0.00,,,0.00,open2300 v1.10,2013-09-02 07:52:00,
2013-09-02 02:57:00,83.8,71.2,29.93,NNW,337,0.0,-999.0,66,0.00,,,0.00,open2300 v1.10,2013-09-02 07:57:00,
2013-09-02 03:06:00,83.7,71.1,29.93,NW,315,0.0,-999.0,66,0.00,,,0.00,open2300 v1.10,2013-09-02 08:06:00,
2013-09-02 03:12:00,83.5,71.3,29.93,NW,315,0.2,-999.0,67,0.00,,,0.00,open2300 v1.10,2013-09-02 08:12:00,
2013-09-02 03:17:00,83.5,71.3,29.93,NNW,337,2.2,-999.0,67,0.00,,,0.00,open2300 v1.10,2013-09-02 08:17:00,
2013-09-02 03:22:00,83.5,71.3,29.93,NW,315,0.0,-999.0,67,0.00,,,0.00,open2300 v1.10,2013-09-02 08:22:00,
2013-09-02 03:27:00,83.5,71.3,29.93,NW,315,0.0,-999.0,67,0.00,,,0.00,open2300 v1.10,2013-09-02 08:27:00,
2013-09-02 03:32:00,83.5,71.3,29.93,NNW,337,0.0,-999.0,67,0.00,,,0.00,open2300 v1.10,2013-09-02 08:32:00,
2013-09-02 03:37:00,83.3,71.2,29.93,NW,315,3.4,-999.0,67,0.00,,,0.00,open2300 v1.10,2013-09-02 08:37:00,
2013-09-02 03:47:00,83.1,71.0,29.93,NW,315,0.0,-999.0,67,0.00,,,0.00,open2300 v1.10,2013-09-02 08:47:00,
2013-09-02 03:52:00,83.1,71.0,29.93,NW,315,0.0,-999.0,67,0.00,,,0.00,open2300 v1.10,2013-09-02 08:52:00,
2013-09-02 03:57:00,83.1,71.0,29.93,NW,315,1.3,-999.0,67,0.00,,,0.00,open2300 v1.10,2013-09-02 08:57:00,
2013-09-02 04:06:00,82.9,70.8,29.93,North,0,0.7,-999.0,67,0.00,,,0.00,open2300 v1.10,2013-09-02 09:06:00,
2013-09-02 04:12:00,82.9,71.2,29.93,NW,315,2.7,-999.0,68,0.00,,,0.00,open2300 v1.10,2013-09-02 09:12:00,
2013-09-02 04:17:00,82.8,71.1,29.93,NW,315,4.5,-999.0,68,0.00,,,0.00,open2300 v1.10,2013-09-02 09:17:00,
2013-09-02 04:22:00,82.8,71.1,29.93,NNW,337,3.6,-999.0,68,0.00,,,0.00,open2300 v1.10,2013-09-02 09:22:00,
2013-09-02 04:27:00,82.6,70.9,29.93,NW,315,0.0,-999.0,68,0.00,,,0.00,open2300 v1.10,2013-09-02 09:27:00,
2013-09-02 04:32:00,82.6,70.9,29.94,NW,315,3.1,-999.0,68,0.00,,,0.00,open2300 v1.10,2013-09-02 09:32:00,
2013-09-02 04:37:00,82.2,70.5,29.94,NW,315,2.9,-999.0,68,0.00,,,0.00,open2300 v1.10,2013-09-02 09:37:00,
2013-09-02 04:42:00,82.2,70.5,29.94,NNW,337,7.8,-999.0,68,0.00,,,0.00,open2300 v1.10,2013-09-02 09:42:00,
2013-09-02 04:52:00,82.0,70.8,29.94,NW,315,0.0,-999.0,69,0.00,,,0.00,open2300 v1.10,2013-09-02 09:52:00,
2013-09-02 04:57:00,81.7,70.5,29.94,NNW,337,1.1,-999.0,69,0.00,,,0.00,open2300 v1.10,2013-09-02 09:57:00,
2013-09-02 05:07:00,81.7,70.5,29.94,NW,315,5.6,-999.0,69,0.00,,,0.00,open2300 v1.10,2013-09-02 10:07:00,
2013-09-02 05:12:00,81.5,70.3,29.94,NW,315,0.0,-999.0,69,0.00,,,0.00,open2300 v1.10,2013-09-02 10:12:00,
2013-09-02 05:17:00,81.5,70.3,29.94,WNW,292,0.0,-999.0,69,0.00,,,0.00,open2300 v1.10,2013-09-02 10:17:00,
2013-09-02 05:22:00,81.5,70.3,29.94,NNW,337,1.8,-999.0,69,0.00,,,0.00,open2300 v1.10,2013-09-02 10:22:00,
2013-09-02 05:27:00,81.5,70.3,29.94,NW,315,0.0,-999.0,69,0.00,,,0.00,open2300 v1.10,2013-09-02 10:27:00,
2013-09-02 05:37:00,81.1,70.5,29.94,NNW,337,5.6,-999.0,70,0.00,,,0.00,open2300 v1.10,2013-09-02 10:37:00,
2013-09-02 05:47:00,81.0,70.3,29.94,NNW,337,2.0,-999.0,70,0.00,,,0.00,open2300 v1.10,2013-09-02 10:47:00,
2013-09-02 05:52:00,81.0,70.3,29.94,North,0,4.5,-999.0,70,0.00,,,0.00,open2300 v1.10,2013-09-02 10:52:00,
2013-09-02 05:57:00,80.8,70.5,29.95,NNW,337,0.0,-999.0,71,0.00,,,0.00,open2300 v1.10,2013-09-02 10:57:00,
2013-09-02 06:06:00,80.8,70.5,29.96,NNW,337,1.6,-999.0,71,0.00,,,0.00,open2300 v1.10,2013-09-02 11:06:00,
2013-09-02 06:12:00,80.8,70.5,29.96,NW,315,5.6,-999.0,71,0.00,,,0.00,open2300 v1.10,2013-09-02 11:12:00,
2013-09-02 06:17:00,80.6,70.4,29.95,NW,315,4.2,-999.0,71,0.00,,,0.00,open2300 v1.10,2013-09-02 11:17:00,
2013-09-02 06:22:00,80.6,70.8,29.95,NW,315,1.3,-999.0,72,0.00,,,0.00,open2300 v1.10,2013-09-02 11:22:00,
2013-09-02 06:27:00,80.4,70.6,29.96,NNW,337,1.8,-999.0,72,0.00,,,0.00,open2300 v1.10,2013-09-02 11:27:00,
2013-09-02 06:32:00,80.4,70.6,29.95,NW,315,3.1,-999.0,72,0.00,,,0.00,open2300 v1.10,2013-09-02 11:32:00,
2013-09-02 06:37:00,80.4,70.6,29.96,NW,315,4.2,-999.0,72,0.00,,,0.00,open2300 v1.10,2013-09-02 11:37:00,
2013-09-02 06:42:00,80.4,70.6,29.96,NW,315,1.3,-999.0,72,0.00,,,0.00,open2300 v1.10,2013-09-02 11:42:00,
2013-09-02 06:47:00,80.4,70.6,29.96,NNW,337,0.0,-999.0,72,0.00,,,0.00,open2300 v1.10,2013-09-02 11:47:00,
2013-09-02 06:52:00,80.4,70.6,29.96,NW,315,0.0,-999.0,72,0.00,,,0.00,open2300 v1.10,2013-09-02 11:52:00,
2013-09-02 06:57:00,80.4,70.6,29.96,NW,315,6.5,-999.0,72,0.00,,,0.00,open2300 v1.10,2013-09-02 11:57:00,
2013-09-02 07:06:00,80.6,70.8,29.96,NW,315,1.1,-999.0,72,0.00,,,0.00,open2300 v1.10,2013-09-02 12:06:00,
2013-09-02 07:12:00,80.8,70.9,29.96,NW,315,0.0,-999.0,72,0.00,,,0.00,open2300 v1.10,2013-09-02 12:12:00,
2013-09-02 07:17:00,80.8,70.9,29.96,NW,315,0.0,-999.0,72,0.00,,,0.00,open2300 v1.10,2013-09-02 12:17:00,
2013-09-02 07:22:00,81.0,71.1,29.97,North,0,6.7,-999.0,72,0.00,,,0.00,open2300 v1.10,2013-09-02 12:22:00,
2013-09-02 07:32:00,81.1,70.9,29.97,NW,315,0.0,-999.0,71,0.00,,,0.00,open2300 v1.10,2013-09-02 12:32:00,
2013-09-02 07:37:00,81.5,71.2,29.96,NNW,337,5.8,-999.0,71,0.00,,,0.00,open2300 v1.10,2013-09-02 12:37:00,
2013-09-02 07:42:00,81.7,71.3,29.97,NNW,337,0.0,-999.0,71,0.00,,,0.00,open2300 v1.10,2013-09-02 12:42:00,
2013-09-02 07:52:00,82.0,71.3,29.97,NNW,337,0.7,-999.0,70,0.00,,,0.00,open2300 v1.10,2013-09-02 12:52:00,
2013-09-02 07:57:00,82.0,71.3,29.97,NNW,337,5.1,-999.0,70,0.00,,,0.00,open2300 v1.10,2013-09-02 12:57:00,
2013-09-02 08:06:00,82.2,71.4,29.98,NNW,337,4.0,-999.0,70,0.00,,,0.00,open2300 v1.10,2013-09-02 13:06:00,
2013-09-02 08:12:00,82.2,71.4,29.98,NNW,337,0.0,-999.0,70,0.00,,,0.00,open2300 v1.10,2013-09-02 13:12:00,
2013-09-02 08:17:00,82.6,71.8,29.99,NNW,337,11.4,-999.0,70,0.00,,,0.00,open2300 v1.10,2013-09-02 13:17:00,
2013-09-02 08:22:00,82.6,72.2,29.98,NW,315,0.4,-999.0,71,0.00,,,0.00,open2300 v1.10,2013-09-02 13:22:00,
2013-09-02 08:27:00,82.6,72.2,29.98,NW,315,8.5,-999.0,71,0.00,,,0.00,open2300 v1.10,2013-09-02 13:27:00,
2013-09-02 08:32:00,82.6,72.2,29.98,NNW,337,5.1,-999.0,71,0.00,,,0.00,open2300 v1.10,2013-09-02 13:32:00,
2013-09-02 08:37:00,82.6,72.2,29.98,NNW,337,1.6,-999.0,71,0.00,,,0.00,open2300 v1.10,2013-09-02 13:37:00,
2013-09-02 08:47:00,82.8,72.4,29.98,NNW,337,7.4,-999.0,71,0.00,,,0.00,open2300 v1.10,2013-09-02 13:47:00,
2013-09-02 08:52:00,82.9,72.5,29.98,NNW,337,6.3,-999.0,71,0.00,,,0.00,open2300 v1.10,2013-09-02 13:52:00,
2013-09-02 08:57:00,82.9,72.5,29.99,NNW,337,5.6,-999.0,71,0.00,,,0.00,open2300 v1.10,2013-09-02 13:57:00,
2013-09-02 09:07:00,82.9,72.5,29.98,NNW,337,4.0,-999.0,71,0.00,,,0.00,open2300 v1.10,2013-09-02 14:07:00,
2013-09-02 09:12:00,83.1,72.7,29.98,North,0,13.6,-999.0,71,0.00,,,0.00,open2300 v1.10,2013-09-02 14:12:00,
2013-09-02 09:17:00,83.1,72.7,29.98,NW,315,11.2,-999.0,71,0.00,,,0.00,open2300 v1.10,2013-09-02 14:17:00,
2013-09-02 09:27:00,83.3,72.9,29.99,North,0,9.4,-999.0,71,0.00,,,0.00,open2300 v1.10,2013-09-02 14:27:00,
2013-09-02 09:32:00,83.1,72.7,29.99,NE,45,3.4,-999.0,71,0.00,,,0.00,open2300 v1.10,2013-09-02 14:32:00,
2013-09-02 09:37:00,83.3,72.9,29.99,NNW,337,0.0,-999.0,71,0.00,,,0.00,open2300 v1.10,2013-09-02 14:37:00,
2013-09-02 09:47:00,83.7,72.9,29.99,NNW,337,7.2,-999.0,70,0.00,,,0.00,open2300 v1.10,2013-09-02 14:47:00,
2013-09-02 09:52:00,83.8,72.6,29.99,NNW,337,0.0,-999.0,69,0.00,,,0.00,open2300 v1.10,2013-09-02 14:52:00,
2013-09-02 09:57:00,84.0,72.8,29.99,NW,315,0.0,-999.0,69,0.00,,,0.00,open2300 v1.10,2013-09-02 14:57:00,
2013-09-02 10:07:00,84.2,72.1,29.99,North,0,0.0,-999.0,67,0.00,,,0.00,open2300 v1.10,2013-09-02 15:07:00,
2013-09-02 10:17:00,84.4,72.2,29.99,NW,315,5.1,-999.0,67,0.00,,,0.00,open2300 v1.10,2013-09-02 15:17:00,
2013-09-02 10:22:00,84.7,72.1,30.00,NNW,337,5.6,-999.0,66,0.00,,,0.00,open2300 v1.10,2013-09-02 15:22:00,
2013-09-02 10:27:00,84.9,72.3,30.00,NE,45,0.2,-999.0,66,0.00,,,0.00,open2300 v1.10,2013-09-02 15:27:00,
2013-09-02 10:32:00,84.9,72.3,30.00,NE,45,0.0,-999.0,66,0.00,,,0.00,open2300 v1.10,2013-09-02 15:32:00,
2013-09-02 10:37:00,85.3,71.7,30.00,NE,45,0.0,-999.0,64,0.00,,,0.00,open2300 v1.10,2013-09-02 15:37:00,
2013-09-02 10:47:00,85.6,72.1,30.00,NNW,337,0.0,-999.0,64,0.00,,,0.00,open2300 v1.10,2013-09-02 15:47:00,
2013-09-02 10:57:00,86.0,71.9,30.00,NNW,337,5.4,-999.0,63,0.00,,,0.00,open2300 v1.10,2013-09-02 15:57:00,
2013-09-02 11:07:00,86.5,72.0,30.00,WNW,292,7.2,-999.0,62,0.00,,,0.00,open2300 v1.10,2013-09-02 16:07:00,
2013-09-02 11:12:00,86.5,71.5,30.00,WNW,292,8.7,-999.0,61,0.00,,,0.00,open2300 v1.10,2013-09-02 16:12:00,
2013-09-02 11:17:00,86.7,71.7,30.00,North,0,5.8,-999.0,61,0.00,,,0.00,open2300 v1.10,2013-09-02 16:17:00,
2013-09-02 11:22:00,86.9,71.9,30.00,North,0,8.7,-999.0,61,0.00,,,0.00,open2300 v1.10,2013-09-02 16:22:00,
2013-09-02 11:27:00,87.1,72.1,30.00,West,270,0.0,-999.0,61,0.00,,,0.00,open2300 v1.10,2013-09-02 16:27:00,
2013-09-02 11:32:00,87.1,72.1,30.00,NW,315,11.6,-999.0,61,0.00,,,0.00,open2300 v1.10,2013-09-02 16:32:00,
2013-09-02 11:37:00,87.3,71.8,30.00,North,0,1.3,-999.0,60,0.00,,,0.00,open2300 v1.10,2013-09-02 16:37:00,
2013-09-02 11:47:00,87.8,72.3,29.99,ENE,67,2.5,-999.0,60,0.00,,,0.00,open2300 v1.10,2013-09-02 16:47:00,
2013-09-02 11:52:00,88.0,71.9,30.00,NW,315,6.5,-999.0,59,0.00,,,0.00,open2300 v1.10,2013-09-02 16:52:00,
2013-09-02 11:57:00,88.2,72.6,30.00,NW,315,0.0,-999.0,60,0.00,,,0.00,open2300 v1.10,2013-09-02 16:57:00,
2013-09-02 12:06:00,88.7,72.6,29.99,NW,315,6.5,-999.0,59,0.00,,,0.00,open2300 v1.10,2013-09-02 17:06:00,
2013-09-02 12:12:00,88.9,72.8,29.99,North,0,5.4,-999.0,59,0.00,,,0.00,open2300 v1.10,2013-09-02 17:12:00,
2013-09-02 12:17:00,89.2,72.5,29.99,NW,315,0.0,-999.0,58,0.00,,,0.00,open2300 v1.10,2013-09-02 17:17:00,
2013-09-02 12:22:00,89.8,73.0,29.99,NNW,337,3.8,-999.0,58,0.00,,,0.00,open2300 v1.10,2013-09-02 17:22:00,
2013-09-02 12:27:00,90.3,73.0,29.99,NNW,337,0.0,-999.0,57,0.00,,,0.00,open2300 v1.10,2013-09-02 17:27:00,
2013-09-02 12:32:00,90.7,72.8,29.99,NW,315,0.0,-999.0,56,0.00,,,0.00,open2300 v1.10,2013-09-02 17:32:00,
2013-09-02 12:37:00,91.2,72.7,29.98,NNW,337,7.6,-999.0,55,0.00,,,0.00,open2300 v1.10,2013-09-02 17:37:00,
2013-09-02 12:47:00,91.8,72.6,29.98,NW,315,0.0,-999.0,54,0.00,,,0.00,open2300 v1.10,2013-09-02 17:47:00,
2013-09-02 12:52:00,92.1,73.0,29.98,NNW,337,0.0,-999.0,54,0.00,,,0.00,open2300 v1.10,2013-09-02 17:52:00,
2013-09-02 12:57:00,92.5,72.8,29.97,NNW,337,2.0,-999.0,53,0.00,,,0.00,open2300 v1.10,2013-09-02 17:57:00,
2013-09-02 13:06:00,93.4,73.1,29.96,WNW,292,5.4,-999.0,52,0.00,,,0.00,open2300 v1.10,2013-09-02 18:06:00,
2013-09-02 13:12:00,93.6,72.7,29.96,NW,315,10.1,-999.0,51,0.00,,,0.00,open2300 v1.10,2013-09-02 18:12:00,
2013-09-02 13:17:00,93.6,72.7,29.96,NW,315,8.3,-999.0,51,0.00,,,0.00,open2300 v1.10,2013-09-02 18:17:00,
2013-09-02 13:22:00,93.7,72.3,29.96,West,270,0.0,-999.0,50,0.00,,,0.00,open2300 v1.10,2013-09-02 18:22:00,
2013-09-02 13:27:00,93.7,72.3,29.96,NNW,337,0.0,-999.0,50,0.00,,,0.00,open2300 v1.10,2013-09-02 18:27:00,
2013-09-02 13:32:00,93.7,72.3,29.96,SE,135,6.9,-999.0,50,0.00,,,0.00,open2300 v1.10,2013-09-02 18:32:00,
2013-09-02 13:37:00,92.8,72.0,29.96,ENE,67,0.0,-999.0,51,0.00,,,0.00,open2300 v1.10,2013-09-02 18:37:00,
2013-09-02 13:47:00,90.9,70.2,29.96,SSE,157,0.0,-999.0,51,0.00,,,0.00,open2300 v1.10,2013-09-02 18:47:00,
2013-09-02 13:52:00,90.1,68.4,29.96,SSE,157,1.6,-999.0,49,0.00,,,0.00,open2300 v1.10,2013-09-02 18:52:00,
2013-09-02 13:57:00,89.4,70.5,29.96,ESE,112,6.5,-999.0,54,0.00,,,0.00,open2300 v1.10,2013-09-02 18:57:00,
2013-09-02 14:06:00,81.0,69.4,29.96,SSE,157,8.5,-999.0,68,0.00,,,0.00,open2300 v1.10,2013-09-02 19:06:00,
2013-09-02 14:11:00,78.8,71.3,29.95,SE,135,6.0,-999.0,78,0.00,,,0.00,open2300 v1.10,2013-09-02 19:11:00,
2013-09-02 14:17:00,77.7,71.4,29.94,SE,135,3.4,-999.0,81,0.00,,,0.00,open2300 v1.10,2013-09-02 19:17:00,
2013-09-02 14:22:00,77.0,71.1,29.93,SE,135,0.0,-999.0,82,0.00,,,0.00,open2300 v1.10,2013-09-02 19:22:00,
2013-09-02 14:27:00,76.8,70.2,29.93,SE,135,0.0,-999.0,80,0.00,,,0.00,open2300 v1.10,2013-09-02 19:27:00,
2013-09-02 14:32:00,77.4,70.7,29.93,SE,135,0.0,-999.0,80,0.00,,,0.00,open2300 v1.10,2013-09-02 19:32:00,
2013-09-02 14:37:00,77.5,70.1,29.93,SE,135,0.0,-999.0,78,0.00,,,0.00,open2300 v1.10,2013-09-02 19:37:00,
2013-09-02 14:47:00,78.4,71.8,29.93,ESE,112,0.0,-999.0,80,0.00,,,0.00,open2300 v1.10,2013-09-02 19:47:00,
2013-09-02 14:52:00,78.8,72.5,29.93,North,0,0.0,-999.0,81,0.00,,,0.00,open2300 v1.10,2013-09-02 19:52:00,
2013-09-02 14:57:00,79.3,72.7,29.93,North,0,0.0,-999.0,80,0.00,,,0.00,open2300 v1.10,2013-09-02 19:57:00,
2013-09-02 15:07:00,80.4,72.6,29.92,SW,225,0.0,-999.0,77,0.00,,,0.00,open2300 v1.10,2013-09-02 20:07:00,
2013-09-02 15:17:00,81.1,72.9,29.91,SSW,202,5.8,-999.0,76,0.00,,,0.00,open2300 v1.10,2013-09-02 20:17:00,
2013-09-02 15:22:00,81.7,73.0,29.92,West,270,0.0,-999.0,75,0.00,,,0.00,open2300 v1.10,2013-09-02 20:22:00,
2013-09-02 15:27:00,82.0,73.3,29.91,West,270,0.0,-999.0,75,0.00,,,0.00,open2300 v1.10,2013-09-02 20:27:00,
2013-09-02 15:32:00,82.4,72.8,29.91,WSW,247,0.9,-999.0,73,0.00,,,0.00,open2300 v1.10,2013-09-02 20:32:00,
2013-09-02 15:37:00,82.9,73.4,29.91,ESE,112,0.0,-999.0,73,0.00,,,0.00,open2300 v1.10,2013-09-02 20:37:00,
2013-09-02 15:47:00,84.0,72.8,29.91,WNW,292,2.5,-999.0,69,0.00,,,0.00,open2300 v1.10,2013-09-02 20:47:00,
2013-09-02 15:52:00,84.4,72.7,29.91,NNW,337,8.3,-999.0,68,0.00,,,0.00,open2300 v1.10,2013-09-02 20:52:00,
2013-09-02 15:57:00,84.6,72.8,29.91,NW,315,2.0,-999.0,68,0.00,,,0.00,open2300 v1.10,2013-09-02 20:57:00,
2013-09-02 16:06:00,85.3,73.1,29.91,WSW,247,0.0,-999.0,67,0.00,,,0.00,open2300 v1.10,2013-09-02 21:06:00,
2013-09-02 16:11:00,85.3,73.1,29.91,WSW,247,0.0,-999.0,67,0.00,,,0.00,open2300 v1.10,2013-09-02 21:11:00,
2013-09-02 16:17:00,85.6,73.4,29.91,WNW,292,0.0,-999.0,67,0.00,,,0.00,open2300 v1.10,2013-09-02 21:17:00,
2013-09-02 16:22:00,86.2,74.0,29.91,West,270,0.0,-999.0,67,0.00,,,0.00,open2300 v1.10,2013-09-02 21:22:00,
2013-09-02 16:27:00,86.5,73.4,29.90,NW,315,9.2,-999.0,65,0.00,,,0.00,open2300 v1.10,2013-09-02 21:27:00,
2013-09-02 16:32:00,86.7,73.1,29.90,WNW,292,0.0,-999.0,64,0.00,,,0.00,open2300 v1.10,2013-09-02 21:32:00,
2013-09-02 16:37:00,87.3,73.1,29.90,WSW,247,0.0,-999.0,63,0.00,,,0.00,open2300 v1.10,2013-09-02 21:37:00,
2013-09-02 16:42:00,87.6,73.5,29.90,NNW,337,0.0,-999.0,63,0.00,,,0.00,open2300 v1.10,2013-09-02 21:42:00,
2013-09-02 16:47:00,88.0,73.4,29.90,NW,315,1.8,-999.0,62,0.00,,,0.00,open2300 v1.10,2013-09-02 21:47:00,
2013-09-02 16:52:00,88.2,73.5,29.90,NW,315,0.9,-999.0,62,0.00,,,0.00,open2300 v1.10,2013-09-02 21:52:00,
2013-09-02 16:57:00,88.3,73.7,29.90,WNW,292,0.0,-999.0,62,0.00,,,0.00,open2300 v1.10,2013-09-02 21:57:00,
2013-09-02 17:06:00,88.7,73.6,29.90,SSW,202,0.0,-999.0,61,0.00,,,0.00,open2300 v1.10,2013-09-02 22:06:00,
2013-09-02 17:12:00,88.7,73.6,29.90,SW,225,0.0,-999.0,61,0.00,,,0.00,open2300 v1.10,2013-09-02 22:12:00,
2013-09-02 17:17:00,88.5,73.4,29.89,NNW,337,0.0,-999.0,61,0.00,,,0.00,open2300 v1.10,2013-09-02 22:17:00,
2013-09-02 17:22:00,88.7,73.1,29.90,NW,315,0.0,-999.0,60,0.00,,,0.00,open2300 v1.10,2013-09-02 22:22:00,
2013-09-02 17:27:00,88.9,73.3,29.89,SW,225,0.0,-999.0,60,0.00,,,0.00,open2300 v1.10,2013-09-02 22:27:00,
2013-09-02 17:32:00,88.7,73.1,29.90,South,180,0.0,-999.0,60,0.00,,,0.00,open2300 v1.10,2013-09-02 22:32:00,
2013-09-02 17:42:00,88.9,73.3,29.90,WSW,247,0.0,-999.0,60,0.00,,,0.00,open2300 v1.10,2013-09-02 22:42:00,
2013-09-02 17:47:00,88.7,73.1,29.90,SW,225,0.0,-999.0,60,0.00,,,0.00,open2300 v1.10,2013-09-02 22:47:00,
2013-09-02 17:52:00,88.3,72.3,29.89,SW,225,0.0,-999.0,59,0.00,,,0.00,open2300 v1.10,2013-09-02 22:52:00,
2013-09-02 17:57:00,88.3,72.8,29.90,NW,315,0.0,-999.0,60,0.00,,,0.00,open2300 v1.10,2013-09-02 22:57:00,
2013-09-02 18:06:00,88.3,72.8,29.90,NW,315,0.0,-999.0,60,0.00,,,0.00,open2300 v1.10,2013-09-02 23:06:00,
2013-09-02 18:12:00,88.3,73.3,29.90,WNW,292,0.0,-999.0,61,0.00,,,0.00,open2300 v1.10,2013-09-02 23:12:00,
2013-09-02 18:17:00,88.3,73.3,29.90,WSW,247,0.0,-999.0,61,0.00,,,0.00,open2300 v1.10,2013-09-02 23:17:00,
2013-09-02 18:22:00,88.2,72.6,29.90,WSW,247,0.0,-999.0,60,0.00,,,0.00,open2300 v1.10,2013-09-02 23:22:00,
2013-09-02 18:27:00,88.0,72.5,29.90,WSW,247,0.0,-999.0,60,0.00,,,0.00,open2300 v1.10,2013-09-02 23:27:00,
2013-09-02 18:32:00,87.8,72.3,29.90,WSW,247,0.0,-999.0,60,0.00,,,0.00,open2300 v1.10,2013-09-02 23:32:00,
2013-09-02 18:37:00,87.6,72.1,29.90,WSW,247,0.0,-999.0,60,0.00,,,0.00,open2300 v1.10,2013-09-02 23:37:00,
2013-09-02 18:42:00,87.4,72.4,29.89,WSW,247,0.0,-999.0,61,0.00,,,0.00,open2300 v1.10,2013-09-02 23:42:00,
2013-09-02 18:47:00,87.1,72.5,29.90,WSW,247,0.0,-999.0,62,0.00,,,0.00,open2300 v1.10,2013-09-02 23:47:00,
2013-09-02 18:52:00,87.1,73.0,29.90,WSW,247,0.0,-999.0,63,0.00,,,0.00,open2300 v1.10,2013-09-02 23:52:00,
2013-09-02 18:57:00,86.7,72.6,29.90,SSE,157,0.0,-999.0,63,0.00,,,0.00,open2300 v1.10,2013-09-02 23:57:00,
2013-09-02 19:06:00,85.5,72.8,29.90,SE,135,0.4,-999.0,66,0.00,,,0.00,open2300 v1.10,2013-09-03 00:06:00,
2013-09-02 19:12:00,84.9,72.3,29.90,SE,135,2.9,-999.0,66,0.00,,,0.00,open2300 v1.10,2013-09-03 00:12:00,
2013-09-02 19:17:00,84.4,72.2,29.90,SE,135,0.0,-999.0,67,0.00,,,0.00,open2300 v1.10,2013-09-03 00:17:00,
2013-09-02 19:22:00,83.8,71.7,29.90,SSE,157,0.0,-999.0,67,0.00,,,0.00,open2300 v1.10,2013-09-03 00:22:00,
2013-09-02 19:27:00,83.7,72.0,29.90,SSE,157,0.0,-999.0,68,0.00,,,0.00,open2300 v1.10,2013-09-03 00:27:00,
2013-09-02 19:32:00,83.5,71.8,29.90,SSE,157,0.0,-999.0,68,0.00,,,0.00,open2300 v1.10,2013-09-03 00:32:00,
2013-09-02 19:37:00,83.3,72.1,29.90,SSE,157,0.0,-999.0,69,0.00,,,0.00,open2300 v1.10,2013-09-03 00:37:00,
2013-09-02 19:47:00,83.1,72.3,29.91,SE,135,0.0,-999.0,70,0.00,,,0.00,open2300 v1.10,2013-09-03 00:47:00,
2013-09-02 19:52:00,82.9,72.1,29.91,SSE,157,0.0,-999.0,70,0.00,,,0.00,open2300 v1.10,2013-09-03 00:52:00,
2013-09-02 19:57:00,82.9,72.1,29.91,SSE,157,0.0,-999.0,70,0.00,,,0.00,open2300 v1.10,2013-09-03 00:57:00,
2013-09-02 20:06:00,82.8,72.0,29.91,SSE,157,0.0,-999.0,70,0.00,,,0.00,open2300 v1.10,2013-09-03 01:06:00,
2013-09-02 20:12:00,82.8,72.0,29.91,SSE,157,0.0,-999.0,70,0.00,,,0.00,open2300 v1.10,2013-09-03 01:12:00,
2013-09-02 20:17:00,82.8,72.0,29.91,SSE,157,0.0,-999.0,70,0.00,,,0.00,open2300 v1.10,2013-09-03 01:17:00,
2013-09-02 20:22:00,82.6,72.2,29.91,SSE,157,0.0,-999.0,71,0.00,,,0.00,open2300 v1.10,2013-09-03 01:22:00,
2013-09-02 20:27:00,82.6,72.2,29.91,SSE,157,0.0,-999.0,71,0.00,,,0.00,open2300 v1.10,2013-09-03 01:27:00,
2013-09-02 20:32:00,82.6,71.8,29.91,SSE,157,0.0,-999.0,70,0.00,,,0.00,open2300 v1.10,2013-09-03 01:32:00,
2013-09-02 20:37:00,82.6,72.2,29.91,SSE,157,0.0,-999.0,71,0.00,,,0.00,open2300 v1.10,2013-09-03 01:37:00,
2013-09-02 20:47:00,82.2,71.8,29.92,SSE,157,0.0,-999.0,71,0.00,,,0.00,open2300 v1.10,2013-09-03 01:47:00,
2013-09-02 20:52:00,82.2,72.2,29.92,SSE,157,0.0,-999.0,72,0.00,,,0.00,open2300 v1.10,2013-09-03 01:52:00,
2013-09-02 20:57:00,82.0,72.1,29.92,SSE,157,0.0,-999.0,72,0.00,,,0.00,open2300 v1.10,2013-09-03 01:57:00,
2013-09-02 21:07:00,82.0,72.1,29.92,SSE,157,0.0,-999.0,72,0.00,,,0.00,open2300 v1.10,2013-09-03 02:07:00,
2013-09-02 21:12:00,82.0,72.1,29.92,SSE,157,0.0,-999.0,72,0.00,,,0.00,open2300 v1.10,2013-09-03 02:12:00,
2013-09-02 21:17:00,82.0,72.5,29.93,SSE,157,0.0,-999.0,73,0.00,,,0.00,open2300 v1.10,2013-09-03 02:17:00,
2013-09-02 21:27:00,82.0,72.9,29.92,SSE,157,0.0,-999.0,74,0.00,,,0.00,open2300 v1.10,2013-09-03 02:27:00,
2013-09-02 21:32:00,82.0,72.9,29.93,SSE,157,0.0,-999.0,74,0.00,,,0.00,open2300 v1.10,2013-09-03 02:32:00,
2013-09-02 21:37:00,81.7,72.6,29.93,SSE,157,0.0,-999.0,74,0.00,,,0.00,open2300 v1.10,2013-09-03 02:37:00,
2013-09-02 21:42:00,81.7,72.6,29.93,South,180,0.0,-999.0,74,0.00,,,0.00,open2300 v1.10,2013-09-03 02:42:00,
2013-09-02 21:47:00,81.3,72.2,29.93,South,180,0.0,-999.0,74,0.00,,,0.00,open2300 v1.10,2013-09-03 02:47:00,
2013-09-02 21:52:00,81.3,72.2,29.93,South,180,0.0,-999.0,74,0.00,,,0.00,open2300 v1.10,2013-09-03 02:52:00,
2013-09-02 21:57:00,81.3,72.2,29.94,South,180,0.0,-999.0,74,0.00,,,0.00,open2300 v1.10,2013-09-03 02:57:00,
2013-09-02 22:06:00,81.0,72.3,29.94,South,180,0.0,-999.0,75,0.00,,,0.00,open2300 v1.10,2013-09-03 03:06:00,
2013-09-02 22:12:00,81.0,72.3,29.94,South,180,0.0,-999.0,75,0.00,,,0.00,open2300 v1.10,2013-09-03 03:12:00,
2013-09-02 22:17:00,81.0,72.3,29.94,South,180,0.0,-999.0,75,0.00,,,0.00,open2300 v1.10,2013-09-03 03:17:00,
2013-09-02 22:22:00,80.8,72.1,29.94,South,180,0.0,-999.0,75,0.00,,,0.00,open2300 v1.10,2013-09-03 03:22:00,
2013-09-02 22:27:00,80.8,72.5,29.94,South,180,0.0,-999.0,76,0.00,,,0.00,open2300 v1.10,2013-09-03 03:27:00,
2013-09-02 22:32:00,80.8,72.5,29.93,South,180,0.0,-999.0,76,0.00,,,0.00,open2300 v1.10,2013-09-03 03:32:00,
2013-09-02 22:37:00,80.8,72.5,29.94,South,180,0.0,-999.0,76,0.00,,,0.00,open2300 v1.10,2013-09-03 03:37:00,
2013-09-02 22:42:00,80.6,72.4,29.94,South,180,0.0,-999.0,76,0.00,,,0.00,open2300 v1.10,2013-09-03 03:42:00,
2013-09-02 22:47:00,80.4,72.2,29.93,SSW,202,0.7,-999.0,76,0.00,,,0.00,open2300 v1.10,2013-09-03 03:47:00,
2013-09-02 22:52:00,80.4,72.6,29.93,SSW,202,0.0,-999.0,77,0.00,,,0.00,open2300 v1.10,2013-09-03 03:52:00,
2013-09-02 22:57:00,80.4,72.6,29.93,SSW,202,0.0,-999.0,77,0.00,,,0.00,open2300 v1.10,2013-09-03 03:57:00,
2013-09-02 23:01:00,80.2,72.4,29.93,SSW,202,0.0,-999.0,77,0.00,,,0.00,open2300 v1.10,2013-09-03 04:01:00,
2013-09-02 23:06:00,79.9,72.0,29.93,SSW,202,0.0,-999.0,77,0.00,,,0.00,open2300 v1.10,2013-09-03 04:06:00,
2013-09-02 23:12:00,79.7,71.8,29.93,SW,225,0.0,-999.0,77,0.00,,,0.00,open2300 v1.10,2013-09-03 04:12:00,
2013-09-02 23:17:00,79.7,72.2,29.94,SW,225,0.0,-999.0,78,0.00,,,0.00,open2300 v1.10,2013-09-03 04:17:00,
2013-09-02 23:22:00,79.9,72.4,29.94,SW,225,0.0,-999.0,78,0.00,,,0.00,open2300 v1.10,2013-09-03 04:22:00,
2013-09-02 23:27:00,79.7,72.6,29.94,WSW,247,0.0,-999.0,79,0.00,,,0.00,open2300 v1.10,2013-09-03 04:27:00,
2013-09-02 23:32:00,79.5,72.5,29.94,West,270,0.0,-999.0,79,0.00,,,0.00,open2300 v1.10,2013-09-03 04:32:00,
2013-09-02 23:37:00,79.5,72.1,29.94,West,270,0.0,-999.0,78,0.00,,,0.00,open2300 v1.10,2013-09-03 04:37:00,
2013-09-02 23:47:00,79.9,72.8,29.94,West,270,0.0,-999.0,79,0.00,,,0.00,open2300 v1.10,2013-09-03 04:47:00,
2013-09-02 23:52:00,79.9,72.8,29.94,West,270,0.0,-999.0,79,0.00,,,0.00,open2300 v1.10,2013-09-03 04:52:00,
2013-09-02 23:57:00,79.9,72.8,29.93,West,270,0.0,-999.0,79,0.00,,,0.00,open2300 v1.10,2013-09-03 04:57:00,